Location: Nelson
(47.1935°N, 121.0537°W)
Time: 12:39:41
(UTC+00:00)

Envisat - Pass Details

Date: 02 December 2022
Orbit: 763 x 765 km, 98.2° (Epoch: 31 January)

Event Time Altitude Azimuth Distance (km) Brightness Sun altitude
Rises 11:38:28 0° 21° (NNE) 3,245 6.6 -38.7°
Reaches altitude 10° 11:40:59 10° 30° (NNE) 2,313 5.8 -38.3°
Enters shadow 11:42:07 16° 38° (NE) 1,929 5.4 -38.1°
